Location: Le Domaine
(47.0333°N, 76.5361°W)
Time: 13:36:55
(UTC-05:00)

Vanguard 1 Rocket - Visible Passes

Search period start: 21 November 2019 00:00
Search period end: 01 December 2019 00:00
Orbit: 651 x 4226 km, 34.3° (Epoch: 20 November)

Date Brightness Start Highest point End Pass type
(mag) Time Alt. Az. Time Alt. Az. Time Alt. Az.
21 Nov 9.3 03:55:41 13° SE 03:55:41 13° SE 03:56:45 10° SE visible
21 Nov 9.1 06:14:26 10° SW 06:17:46 18° S 06:22:00 10° SE visible
22 Nov 8.7 05:05:52 17° SSW 05:07:06 18° S 05:10:42 10° SE visible
23 Nov 9.3 03:58:46 13° SE 03:58:46 13° SE 03:59:36 10° SE visible
23 Nov 9.1 06:18:00 10° SW 06:20:37 14° S 06:23:41 10° SSE visible
24 Nov 8.7 05:08:56 15° SSW 05:09:55 16° S 05:12:59 10° SSE visible
25 Nov 9.4 04:01:50 12° SE 04:01:50 12° SE 04:02:20 10° SE visible
25 Nov 9.4 06:22:46 10° SSW 06:23:25 10° SSW 06:24:05 10° S visible
26 Nov 8.9 05:12:01 13° SSW 05:12:42 13° SSW 05:14:56 10° SSE visible
